Location: Unspecified
(44.0704°N, 88.6889°W)
Time: 17:18:56
(UTC+02:00)

Cosmos 1674 - Visible Passes

Search period start: 20 August 2018 00:00
Search period end: 30 August 2018 00:00
Orbit: 495 x 522 km, 82.5° (Epoch: 19 August)

Date Brightness Start Highest point End Pass type
(mag) Time Alt. Az. Time Alt. Az. Time Alt. Az.
20 Aug 5.7 07:57:31 10° N 07:58:10 14° N 07:58:10 14° N visible
21 Aug 5.8 07:40:26 10° N 07:40:55 13° NNE 07:40:55 13° NNE visible
22 Aug 5.8 07:23:24 10° NNE 07:23:40 11° NNE 07:23:40 11° NNE visible
26 Aug 6.0 07:49:34 10° NNW 07:49:37 10° NNW 07:49:37 10° NNW visible
27 Aug 6.0 07:32:18 10° N 07:32:25 11° N 07:32:25 11° N visible
28 Aug 6.0 07:15:04 10° N 07:15:14 11° N 07:15:14 11° N visible
29 Aug 6.0 06:57:52 10° N 06:58:02 11° N 06:58:02 11° N visible
